McCall, ID

7:18 PM MDT on October 16, 2017 (GMT -0600)
McCall

Weather History for KMYL - March, 2011

Change the Weather History Date:

Tuesday, March 15, 2011

  Actual Average Record
Temperature  
Mean Temperature 32 °F 29 °F  
Max Temperature 35 °F 40 °F 66 °F (1992)
Min Temperature 29 °F 18 °F -12 °F (1955)
Degree Days  
Heating Degree Days 33 36  
Month to date heating degree days 553 570  
Since 1 July heating degree days 6726 7245  
Cooling Degree Days 0 0  
Month to date cooling degree days 0 0  
Year to date cooling degree days 0 0  
Moisture  
Dew Point 31 °F    
Average Humidity 83    
Maximum Humidity 100    
Minimum Humidity 66    
Precipitation  
Precipitation 1.16 in 0.08 in 1.36 in (2012)
Month to date precipitation 2.36 0.89  
Year to date precipitation 6.32 4.36  
Sea Level Pressure  
Sea Level Pressure 29.91 in    
Wind  
Wind Speed 5 mph (SSE)    
Max Wind Speed 15 mph    
Max Gust Speed 21 mph    
Visibility 4 miles    
Events Fog , Rain , Snow    
T = Trace of Precipitation, MM = Missing Value Source: NWS Daily Summary

Daily Weather History Graph

Daily Weather History Graph

Search for Another Location

Airport or City:

Trip Planner

Search our weather history database for the weather conditions in past years. The results will help you decide how hot, cold, wet, or windy it might be!

Date:

Astronomy

Mar. 15, 2011 Rise Set
Actual Time 7:57 AM MDT 7:50 PM MDT
Civil Twilight 7:28 AM MDT 8:19 PM MDT
Nautical Twilight 6:53 AM MDT 8:53 PM MDT
Astronomical Twilight 6:19 AM MDT 9:28 PM MDT
Moon 3:11 PM MDT (3/15) 5:19 AM MDT (3/15)
Length of Visible Light 12h 51m
Length of Day
11h 53m
Waxing Gibbous, 78% of the Moon is Illuminated
Mar 15
Waxing Gibbous
Mar 19
Full
Mar 26
Last Quarter
Apr 3
New
Apr 11
First Quarter

Hourly Weather History & Observations

Time (MDT) Temp. Windchill Dew Point Humidity Pressure Visibility Wind Dir Wind Speed Gust Speed Precip Events Conditions
12:51 AM 30.0 °F 24.1 °F 24.1 °F 79% 30.15 in 10.0 mi NE 5.8 mph - N/A   Overcast
1:51 AM 28.9 °F - 24.1 °F 82% 30.14 in 10.0 mi Calm Calm - N/A   Overcast
2:51 AM 30.0 °F - 25.0 °F 82% 30.10 in 10.0 mi Calm Calm - N/A   Overcast
3:51 AM 32.0 °F - 23.0 °F 69% 30.09 in 10.0 mi Calm Calm - N/A   Overcast
4:51 AM 34.0 °F - 24.1 °F 67% 30.05 in 10.0 mi Calm Calm - N/A   Overcast
5:51 AM 35.1 °F 27.9 °F 28.0 °F 76% 30.04 in 10.0 mi SSE 9.2 mph - N/A   Overcast
6:21 AM 33.8 °F 25.8 °F 28.4 °F 81% 30.00 in 10.0 mi SSE 10.4 mph - N/A   Overcast
6:48 AM 33.8 °F 26.4 °F 30.2 °F 87% 30.00 in 3.0 mi SSE 9.2 mph - 0.00 in Snow Light Snow
6:51 AM 33.1 °F 26.1 °F 30.0 °F 89% 30.05 in 3.0 mi SSE 8.1 mph - 0.00 in Snow Light Snow
6:57 AM 33.8 °F 28.6 °F 30.2 °F 87% 30.00 in 2.0 mi SSE 5.8 mph - 0.00 in Snow Light Snow
7:04 AM 33.8 °F 29.6 °F 30.2 °F 87% 30.00 in 1.5 mi SSE 4.6 mph - 0.01 in Snow Light Snow
7:14 AM 33.8 °F 29.6 °F 30.2 °F 87% 30.00 in 1.2 mi SE 4.6 mph - 0.01 in Snow Light Snow
7:27 AM 32.0 °F 25.6 °F 30.2 °F 93% 29.99 in 1.5 mi SE 6.9 mph - 0.03 in Snow Light Snow
7:51 AM 32.0 °F 26.4 °F 30.9 °F 96% 30.06 in 1.8 mi SSE 5.8 mph - 0.04 in Snow Light Snow
8:22 AM 32.0 °F 25.6 °F 30.2 °F 93% 29.98 in 2.5 mi SE 6.9 mph - 0.01 in Snow Light Snow
8:28 AM 32.0 °F 26.4 °F 30.2 °F 93% 29.98 in 4.0 mi SSE 5.8 mph - 0.01 in Snow Light Snow
8:51 AM 32.0 °F 26.4 °F 32.0 °F 100% 30.05 in 5.0 mi SSW 5.8 mph - 0.01 in Snow Light Snow
8:59 AM 32.0 °F 25.6 °F 32.0 °F 100% 29.99 in 3.0 mi SSW 6.9 mph - 0.00 in Snow Light Snow
9:05 AM 32.0 °F 24.8 °F 32.0 °F 100% 29.99 in 2.0 mi South 8.1 mph - 0.01 in Snow Light Snow
9:17 AM 32.0 °F 24.2 °F 32.0 °F 100% 29.98 in 1.5 mi SSE 9.2 mph - 0.01 in Snow Light Snow
9:28 AM 33.8 °F 27.0 °F 32.0 °F 93% 29.98 in 3.0 mi SSE 8.1 mph - 0.01 in Snow Light Snow
9:34 AM 33.8 °F 27.0 °F 32.0 °F 93% 29.98 in 4.0 mi SSE 8.1 mph - 0.01 in Snow Light Snow
9:51 AM 33.1 °F 26.1 °F 32.0 °F 96% 30.04 in 4.0 mi SSE 8.1 mph - 0.02 in Snow Light Snow
10:00 AM 33.8 °F 27.7 °F 32.0 °F 93% 29.98 in 2.5 mi SSE 6.9 mph - 0.00 in Snow Light Snow
10:18 AM 33.8 °F 29.6 °F 32.0 °F 93% 29.98 in 1.2 mi SSE 4.6 mph - 0.00 in Snow Light Snow
10:25 AM 33.8 °F 30.8 °F 30.2 °F 87% 29.98 in 2.0 mi SE 3.5 mph - 0.01 in Snow Light Snow
10:31 AM 33.8 °F 29.6 °F 30.2 °F 87% 29.98 in 4.0 mi SSE 4.6 mph - 0.01 in Snow Light Snow
10:51 AM 33.1 °F 26.9 °F 30.9 °F 92% 30.05 in 3.0 mi SE 6.9 mph - 0.02 in Snow Light Snow
10:59 AM 33.8 °F 28.6 °F 30.2 °F 87% 29.97 in 1.8 mi SE 5.8 mph - 0.01 in Snow Light Snow
11:08 AM 33.8 °F 28.6 °F 32.0 °F 93% 29.97 in 1.0 mi SE 5.8 mph - 0.02 in Snow Light Snow
11:22 AM 32.0 °F - 32.0 °F 100% 29.96 in 0.8 mi Calm Calm - 0.04 in Snow Light Snow
11:32 AM 32.0 °F 28.7 °F 30.2 °F 93% 29.96 in 0.8 mi South 3.5 mph - 0.05 in Snow Light Snow
11:51 AM 32.0 °F 27.5 °F 30.9 °F 96% 30.04 in 0.8 mi South 4.6 mph - 0.08 in Snow Light Snow
11:56 AM 32.0 °F 26.4 °F 30.2 °F 93% 29.96 in 1.2 mi South 5.8 mph - 0.01 in Snow Light Snow
12:29 PM 32.0 °F - 32.0 °F 100% 29.96 in 0.8 mi Calm Calm - 0.03 in Snow Light Snow
12:51 PM 32.0 °F 28.7 °F 32.0 °F 100% 30.02 in 0.8 mi SSE 3.5 mph - 0.06 in Snow Light Snow
1:08 PM 33.8 °F 27.0 °F 30.2 °F 87% 29.95 in 1.2 mi SE 8.1 mph - 0.01 in Snow Light Snow
1:16 PM 33.8 °F 27.7 °F 32.0 °F 93% 29.95 in 3.0 mi SSE 6.9 mph - 0.01 in Snow Light Snow
1:27 PM 33.8 °F 27.7 °F 32.0 °F 93% 29.94 in 8.0 mi SE 6.9 mph - 0.02 in   Overcast
1:51 PM 33.1 °F 26.9 °F 32.0 °F 96% 30.01 in 9.0 mi South 6.9 mph - 0.02 in Snow Light Snow
2:01 PM 33.8 °F 29.6 °F 32.0 °F 93% 29.94 in 5.0 mi South 4.6 mph - N/A Snow Light Snow
2:11 PM 33.8 °F 28.6 °F 32.0 °F 93% 29.93 in 3.0 mi South 5.8 mph - 0.01 in Snow Light Snow
2:16 PM 33.8 °F 29.6 °F 32.0 °F 93% 29.93 in 2.0 mi South 4.6 mph - 0.01 in Snow Light Snow
2:22 PM 33.8 °F 29.6 °F 32.0 °F 93% 29.93 in 1.5 mi South 4.6 mph - 0.01 in Snow Light Snow
2:37 PM 33.8 °F 28.6 °F 32.0 °F 93% 29.93 in 3.0 mi South 5.8 mph - 0.02 in Snow Light Snow
2:47 PM 33.8 °F 29.6 °F 32.0 °F 93% 29.92 in 5.0 mi SSE 4.6 mph - 0.02 in Snow Light Snow
2:51 PM 33.1 °F 28.7 °F 32.0 °F 96% 29.98 in 6.0 mi SSE 4.6 mph - 0.02 in   Overcast
3:01 PM 33.8 °F 28.6 °F 32.0 °F 93% 29.91 in 2.5 mi SSE 5.8 mph - 0.01 in Snow Light Snow
3:09 PM 33.8 °F 27.7 °F 32.0 °F 93% 29.91 in 3.0 mi SSE 6.9 mph - 0.01 in Snow Light Snow
3:51 PM 34.0 °F 28.8 °F 32.0 °F 92% 29.93 in 10.0 mi SSE 5.8 mph - 0.03 in Rain Light Rain
4:17 PM 33.8 °F 27.0 °F 32.0 °F 93% 29.87 in 9.0 mi South 8.1 mph - 0.00 in Rain Light Rain
4:37 PM 33.8 °F 27.7 °F 32.0 °F 93% 29.86 in 5.0 mi SSE 6.9 mph - 0.01 in Snow Light Snow
4:51 PM 34.0 °F 28.0 °F 32.0 °F 92% 29.89 in 10.0 mi SE 6.9 mph - 0.02 in Rain Light Rain
5:39 PM 33.8 °F - 33.8 °F 100% 29.82 in 10.0 mi Calm Calm - 0.02 in Rain Light Rain
5:51 PM 34.0 °F 31.0 °F 32.0 °F 92% 29.86 in 10.0 mi WSW 3.5 mph - 0.03 in Rain Light Rain
6:06 PM 33.8 °F 29.6 °F 33.8 °F 100% 29.81 in 5.0 mi WSW 4.6 mph - 0.01 in Rain Light Rain
6:26 PM 33.8 °F 29.6 °F 32.0 °F 93% 29.80 in 2.0 mi SSW 4.6 mph - 0.05 in Snow Light Snow
6:40 PM 33.8 °F 30.8 °F 32.0 °F 93% 29.79 in 4.0 mi SSW 3.5 mph - 0.07 in Rain Light Rain
6:51 PM 33.1 °F 28.7 °F 32.0 °F 96% 29.85 in 2.5 mi WSW 4.6 mph - 0.09 in Snow Light Snow
6:56 PM 33.8 °F - 32.0 °F 93% 29.80 in 1.0 mi Calm Calm - 0.01 in Snow Light Snow
7:06 PM 33.8 °F - 32.0 °F 93% 29.80 in 0.8 mi Calm Calm - 0.04 in Snow Light Snow
7:15 PM 32.0 °F 28.7 °F 32.0 °F 100% 29.80 in 0.5 mi South 3.5 mph - 0.07 in Fog , Snow Snow
7:34 PM 32.0 °F 25.6 °F 30.2 °F 93% 29.80 in 1.2 mi South 6.9 mph - 0.13 in Snow Light Snow
7:42 PM 33.8 °F 27.7 °F 30.2 °F 87% 29.80 in 1.8 mi SSW 6.9 mph - 0.14 in Snow Light Snow
7:49 PM 33.8 °F 27.7 °F 30.2 °F 87% 29.80 in 2.0 mi SSE 6.9 mph - 0.15 in Snow Light Snow
7:51 PM 33.1 °F 27.7 °F 30.9 °F 92% 29.85 in 1.8 mi SE 5.8 mph - 0.16 in Snow Light Snow
8:02 PM 33.8 °F 26.4 °F 30.2 °F 87% 29.78 in 2.5 mi ESE 9.2 mph - 0.01 in Snow Light Snow
8:07 PM 33.8 °F 25.8 °F 32.0 °F 93% 29.78 in 4.0 mi ESE 10.4 mph - 0.01 in Snow Light Snow
8:27 PM 33.8 °F 27.0 °F 32.0 °F 93% 29.77 in 3.0 mi ESE 8.1 mph - 0.03 in Snow Light Snow
8:34 PM 33.8 °F 28.6 °F 32.0 °F 93% 29.77 in 2.0 mi SE 5.8 mph - 0.05 in Snow Light Snow
8:41 PM 33.8 °F 27.7 °F 32.0 °F 93% 29.77 in 1.5 mi SE 6.9 mph - 0.07 in Snow Light Snow
9:02 PM 33.8 °F 27.0 °F 32.0 °F 93% 29.76 in 1.8 mi SE 8.1 mph - 0.02 in Snow Light Snow
9:22 PM 33.8 °F 25.8 °F 32.0 °F 93% 29.76 in 1.5 mi SSE 10.4 mph - 0.06 in Snow Light Snow
9:29 PM 32.0 °F 23.0 °F 30.2 °F 93% 29.76 in 1.0 mi SE 11.5 mph - 0.08 in Snow Light Snow
9:39 PM 33.8 °F 25.3 °F 30.2 °F 87% 29.75 in 1.2 mi SE 11.5 mph - 0.10 in Snow Light Snow
10:28 PM 33.8 °F 26.4 °F 32.0 °F 93% 29.75 in 6.0 mi South 9.2 mph 17.3 mph 0.05 in Snow Light Snow
10:38 PM 32.0 °F 24.8 °F 32.0 °F 100% 29.76 in 1.8 mi WNW 8.1 mph - 0.06 in Snow Light Snow
11:02 PM 33.8 °F 30.8 °F 32.0 °F 93% 29.76 in 1.2 mi Variable 3.5 mph - 0.14 in Snow Light Snow
11:16 PM 33.8 °F 30.8 °F 30.2 °F 87% 29.76 in 1.0 mi ENE 3.5 mph - 0.18 in Snow Light Snow
11:18 PM 33.8 °F 29.6 °F 32.0 °F 93% 29.76 in 1.2 mi ENE 4.6 mph - 0.18 in Snow Light Snow
11:29 PM 32.0 °F - 32.0 °F 100% 29.76 in 1.0 mi Calm Calm - 0.21 in Snow Light Snow
11:39 PM 32.0 °F - 32.0 °F 100% 29.76 in 0.8 mi Calm Calm - 0.24 in Snow Light Snow
11:46 PM 32.0 °F 28.7 °F 30.2 °F 93% 29.75 in 1.0 mi ENE 3.5 mph - 0.26 in Snow Light Snow
11:51 PM 32.0 °F 27.5 °F 30.9 °F 96% 29.80 in 1.8 mi ENE 4.6 mph - 0.26 in Snow Light Snow